EW5035 Weather Reports


Display with metric or nautical units.
time (UTC)temp
F
wind
direction
speed
MPH
gust
MPH
rain 1hr
in
rain 24hr
in
rain mn
in
humidity
%
barometer
mb
20260505003535 84 295 3.0 7.0 0.00 0.00 0.00 25 1006.3
20260505003039 84 295 4.0 7.0 0.00 0.00 0.00 28 1006.2
20260505002534 84 295 3.0 8.0 0.00 0.00 0.00 26 1006.2
20260505002035 84 295 5.0 9.0 0.00 0.00 0.00 26 1006.3
20260505001541 84 295 5.0 11.0 0.00 0.00 0.00 25 1006.2
20260505001035 84 295 6.0 11.0 0.00 0.00 0.00 25 1006.2
20260505000535 84 295 7.0 10.0 0.00 0.00 0.00 24 1006.3
20260505000044 84 295 3.0 9.0 0.00 0.00 0.00 26 1006.4
20260504235534 83 295 3.0 9.0 0.00 0.00 0.00 26 1006.5
20260504235036 83 295 4.0 9.0 0.00 0.00 0.00 26 1006.5
20260504234544 83 295 3.0 9.0 0.00 0.00 0.00 26 1006.5
20260504234040 83 295 3.0 8.0 0.00 0.00 0.00 28 1006.5
20260504233534 84 295 3.0 8.0 0.00 0.00 0.00 26 1006.5
20260504233055 83 295 3.0 8.0 0.00 0.00 0.00 26 1006.6
20260504232534 83 295 3.0 10.0 0.00 0.00 0.00 26 1006.6
20260504232034 83 295 5.0 11.0 0.00 0.00 0.00 27 1006.6
20260504231540 83 295 4.0 11.0 0.00 0.00 0.00 26 1006.6
20260504231034 83 295 8.0 11.0 0.00 0.00 0.00 26 1006.7
20260504230534 83 295 2.0 13.0 0.00 0.00 0.00 26 1006.7
20260504230050 82 295 5.0 13.0 0.00 0.00 0.00 26 1006.9
20260504225535 83 295 6.0 11.0 0.00 0.00 0.00 26 1006.9
20260504225034 83 295 3.0 7.0 0.00 0.00 0.00 27 1006.9
20260504224546 83 295 3.0 11.0 0.00 0.00 0.00 26 1006.9
20260504224036 83 295 4.0 11.0 0.00 0.00 0.00 26 1007.0
20260504223534 83 295 2.0 5.0 0.00 0.00 0.00 27 1007.0
20260504223053 83 295 3.0 9.0 0.00 0.00 0.00 26 1007.1
20260504222533 82 295 2.0 10.0 0.00 0.00 0.00 26 1007.1
20260504222034 82 295 6.0 11.0 0.00 0.00 0.00 26 1007.3
20260504221547 83 295 5.0 11.0 0.00 0.00 0.00 26 1007.3
20260504221034 83 295 2.0 9.0 0.00 0.00 0.00 26 1007.3
20260504220535 82 295 2.0 9.0 0.00 0.00 0.00 27 1007.4
20260504215534 82 295 3.0 7.0 0.00 0.00 0.00 28 1007.4
20260504215033 81 295 1.0 14.0 0.00 0.00 0.00 28 1007.4
20260504214548 81 295 7.0 14.0 0.00 0.00 0.00 27 1007.6
20260504214034 81 295 2.0 9.0 0.00 0.00 0.00 28 1007.7
20260504213534 81 295 4.0 16.0 0.00 0.00 0.00 27 1007.7
20260504213055 81 295 6.0 16.0 0.00 0.00 0.00 27 1007.8
20260504212534 81 295 7.0 16.0 0.00 0.00 0.00 28 1007.8
20260504212037 81 295 4.0 9.0 0.00 0.00 0.00 28 1007.9
20260504211546 81 295 1.0 13.0 0.00 0.00 0.00 28 1007.9
20260504211034 81 295 5.0 13.0 0.00 0.00 0.00 27 1007.9
20260504210534 81 295 3.0 8.0 0.00 0.00 0.00 28 1008.0
20260504210044 80 295 3.0 9.0 0.00 0.00 0.00 28 1008.0
20260504205535 80 295 3.0 10.0 0.00 0.00 0.00 28 1008.2
20260504205034 80 295 3.0 10.0 0.00 0.00 0.00 29 1008.2
20260504204557 80 295 5.0 13.0 0.00 0.00 0.00 29 1008.3
20260504204035 80 295 6.0 13.0 0.00 0.00 0.00 28 1008.3
20260504203535 80 295 5.0 13.0 0.00 0.00 0.00 27 1008.2
20260504203050 80 295 3.0 9.0 0.00 0.00 0.00 27 1008.2
20260504202536 80 0 2.0 10.0 0.00 0.00 0.00 28 1008.4
20260504202037 80 295 6.0 10.0 0.00 0.00 0.00 28 1008.5
20260504201550 80 295 5.0 9.0 0.00 0.00 0.00 28 1008.5
20260504201034 80 295 2.0 5.0 0.00 0.00 0.00 28 1008.6
20260504200616 80 295 2.0 10.0 0.00 0.00 0.00 28 1008.7
20260504200047 79 295 2.0 10.0 0.00 0.00 0.00 28 1008.8
20260504195534 79 295 5.0 10.0 0.00 0.00 0.00 27 1008.8
20260504195035 79 295 1.0 8.0 0.00 0.00 0.00 29 1008.8
20260504194546 79 295 3.0 8.0 0.00 0.00 0.00 29 1008.8
20260504194034 79 295 3.0 7.0 0.00 0.00 0.00 30 1008.7
20260504193535 78 295 2.0 7.0 0.00 0.00 0.00 30 1008.8
20260504193042 78 0 1.0 9.0 0.00 0.00 0.00 29 1008.8
20260504192534 78 295 3.0 9.0 0.00 0.00 0.00 30 1008.8
20260504192034 77 295 3.0 5.0 0.00 0.00 0.00 31 1008.8
20260504191547 77 295 2.0 5.0 0.00 0.00 0.00 30 1008.9
20260504191033 76 295 3.0 10.0 0.00 0.00 0.00 30 1009.0
20260504190531 76 295 5.0 11.0 0.00 0.00 0.00 30 1009.0
20260504190040 76 295 8.0 12.0 0.00 0.00 0.00 30 1009.1
20260504185531 76 295 5.0 12.0 0.00 0.00 0.00 30 1009.0
20260504185320 76 295 5.0 12.0 0.00 0.00 0.00 32 1009.1
20260504184031 76 295 5.0 10.0 0.00 0.00 0.00 33 1009.1
20260504183736 76 295 5.0 9.0 0.00 0.00 0.00 35 1009.1
20260504182031 75 295 3.0 8.0 0.00 0.00 0.00 36 1009.1
20260504181545 74 295 3.0 11.0 0.00 0.00 0.00 37 1009.1
20260504181033 74 295 6.0 11.0 0.00 0.00 0.00 37 1009.0
20260504180714 74 295 3.0 10.0 0.00 0.00 0.00 38 1009.1
20260504180537 74 295 3.0 10.0 0.00 0.00 0.00 38 1009.1
20260504180041 73 295 3.0 11.0 0.00 0.00 0.00 39 1009.2
20260504175530 73 295 6.0 11.0 0.00 0.00 0.00 39 1009.0
20260504175034 73 295 5.0 10.0 0.00 0.00 0.00 38 1009.0
20260504174550 73 295 5.0 10.0 0.00 0.00 0.00 38 1009.1
20260504174031 72 295 3.0 10.0 0.00 0.00 0.00 40 1009.1
20260504173531 71 295 1.0 13.0 0.00 0.00 0.00 42 1009.2
20260504173048 71 295 7.0 13.0 0.00 0.00 0.00 41 1009.1
20260504172534 71 0 4.0 7.0 0.00 0.00 0.00 41 1009.1
20260504172035 70 295 2.0 10.0 0.00 0.00 0.00 43 1009.1
20260504171548 70 295 4.0 10.0 0.00 0.00 0.00 44 1009.1
20260504171032 70 295 3.0 10.0 0.00 0.00 0.00 45 1009.1
20260504170534 69 295 3.0 9.0 0.00 0.00 0.00 46 1009.1
20260504151034 64 295 5.0 10.0 0.00 0.00 0.00 52 1009.0
20260504150536 63 295 2.0 7.0 0.00 0.00 0.00 53 1009.0
20260504141034 55 0 0.0 0.0 0.00 0.00 0.00 71 1008.9
20260504140538 53 0 0.0 0.0 0.00 0.00 0.00 73 1008.8
20260504130534 48 0 0.0 0.0 0.00 0.00 0.00 77 1008.6
20260504110534 50 0 0.0 3.0 0.00 0.00 0.00 73 1008.3
20260504100537 50 0 0.0 2.0 0.00 0.00 0.00 71 1008.6
20260504081549 52 0 0.0 0.0 0.00 0.00 0.00 67 1008.7
20260504081036 52 0 0.0 0.0 0.00 0.00 0.00 67 1008.8
20260504080537 52 0 0.0 0.0 0.00 0.00 0.00 67 1008.8
20260504050535 54 0 0.0 1.0 0.00 0.00 0.00 68 1009.1
20260504045534 54 0 0.0 0.0 0.00 0.00 0.00 67 1009.1
20260504045035 54 0 0.0 1.0 0.00 0.00 0.00 67 1009.0
20260504044547 55 0 0.0 2.0 0.00 0.00 0.00 67 1009.0
20260504044035 55 295 0.0 2.0 0.00 0.00 0.00 67 1009.0
20260504043531 55 0 0.0 2.0 0.00 0.00 0.00 65 1008.9
20260504043055 56 0 0.0 0.0 0.00 0.00 0.00 64 1008.9
20260504042535 56 0 0.0 0.0 0.00 0.00 0.00 64 1008.9
20260504042035 57 0 0.0 0.0 0.00 0.00 0.00 64 1009.0
20260504041546 57 0 0.0 0.0 0.00 0.00 0.00 62 1008.9
20260504041034 58 0 0.0 0.0 0.00 0.00 0.00 60 1008.9
20260504040535 59 0 0.0 0.0 0.00 0.00 0.00 58 1008.9
20260504040045 61 0 0.0 0.0 0.00 0.00 0.00 57 1008.8
20260504035534 61 0 0.0 0.0 0.00 0.00 0.00 56 1008.8
20260504035038 62 0 0.0 0.0 0.00 0.00 0.00 55 1008.8
20260504034541 63 0 0.0 0.0 0.00 0.00 0.00 54 1008.8
20260504034034 64 0 0.0 0.0 0.00 0.00 0.00 53 1008.8
20260504033534 64 0 0.0 0.0 0.00 0.00 0.00 52 1008.8
20260504033048 65 0 0.0 0.0 0.00 0.00 0.00 50 1008.8
20260504032535 66 0 0.0 1.0 0.00 0.00 0.00 50 1008.8
20260504032039 67 0 0.0 1.0 0.00 0.00 0.00 48 1008.8
20260504031550 68 295 0.0 1.0 0.00 0.00 0.00 46 1008.8
20260504031035 69 0 0.0 0.0 0.00 0.00 0.00 44 1008.9
20260504030534 70 0 0.0 0.0 0.00 0.00 0.00 43 1008.8
20260504030047 71 0 0.0 0.0 0.00 0.00 0.00 42 1008.8
20260504025537 72 0 0.0 0.0 0.00 0.00 0.00 42 1008.8
20260504025036 73 0 0.0 1.0 0.00 0.00 0.00 42 1008.7
20260504024545 74 0 0.0 1.0 0.00 0.00 0.00 37 1008.7
20260504024042 74 0 0.0 3.0 0.00 0.00 0.00 37 1008.8
20260504023536 74 0 0.0 3.0 0.00 0.00 0.00 35 1008.7
20260504023045 75 295 2.0 4.0 0.00 0.00 0.00 35 1008.8
20260504022535 76 295 2.0 4.0 0.00 0.00 0.00 34 1008.9
20260504022037 77 295 1.0 4.0 0.00 0.00 0.00 33 1008.8
20260504021549 79 295 1.0 4.0 0.00 0.00 0.00 32 1008.7
20260504021037 79 0 1.0 4.0 0.00 0.00 0.00 30 1008.8
20260504020534 80 295 0.0 7.0 0.00 0.00 0.00 30 1008.8
20260504020106 80 295 3.0 7.0 0.00 0.00 0.00 27 1008.9
20260504015535 81 295 5.0 7.0 0.00 0.00 0.00 28 1008.8
20260504015035 81 295 2.0 7.0 0.00 0.00 0.00 26 1008.9
20260504014554 82 295 3.0 8.0 0.00 0.00 0.00 26 1008.8
20260504014034 82 295 3.0 8.0 0.00 0.00 0.00 25 1008.9
20260504013534 82 295 4.0 11.0 0.00 0.00 0.00 25 1009.0
20260504013058 82 295 3.0 11.0 0.00 0.00 0.00 24 1009.0
20260504012536 82 295 4.0 11.0 0.00 0.00 0.00 23 1009.1
20260504012033 82 295 5.0 10.0 0.00 0.00 0.00 25 1009.1
20260504011546 82 295 6.0 9.0 0.00 0.00 0.00 25 1009.2
20260504011035 82 295 5.0 9.0 0.00 0.00 0.00 23 1009.4
20260504010535 82 295 5.0 9.0 0.00 0.00 0.00 24 1009.5
20260504010046 82 295 5.0 11.0 0.00 0.00 0.00 22 1009.5
20260504005535 82 295 6.0 11.0 0.00 0.00 0.00 22 1009.6
20260504005035 82 295 4.0 11.0 0.00 0.00 0.00 23 1009.6
20260504004605 82 295 4.0 13.0 0.00 0.00 0.00 22 1009.5
20260504004035 82 295 7.0 13.0 0.00 0.00 0.00 23 1009.6